Location: Benalto
(52.3088°N, 114.2787°W)
Time: 12:01:22
(UTC+00:00)

N. Korean satellite - Pass Details

Date: 04 December 2021
Orbit: 447 x 491 km, 97.3° (Epoch: 21 January)

Event Time Altitude Azimuth Distance (km) Brightness Sun altitude
Rises 12:38:35 0° 18° (NNE) 2,475 10.3 -24.8°
Reaches altitude 10° 12:40:43 10° 26° (NNE) 1,592 9.4 -24.5°
Maximum altitude 12:43:58 42° 99° (E) 650 7.6 -24.0°
Drops below altitude 10° 12:47:12 10° 172° (S) 1,572 9.3 -23.5°
Sets 12:49:17 0° 179° (S) 2,439 10.2 -23.2°
